TERRA (25994 NORAD) Tracking and Keplerian Element Data

This shows tracking and keplerian element data for the satellite.

Feedback or suggestion? Click here.




ElementValue
Catalog25994
NameTERRA
Epoch Orbit1056
Epoch Day351.80577605
Epoch Year2018
RAAN63.985
Inclination98.2125
Eccentricity0.0001042
Argument of Perigee98.6845
Mean Anonmoly261.4457
Mean Motion14.57108088
Decay Rate-3.19E-06
L11 25994U 99068A 18351.80577605 -.00000319 00000-0 -60761-4 0 9996
L22 25994 98.2125 63.9850 0001042 98.6845 261.4457 14.57108088 10569

Live tracking and technical data element details for TERRA (NORAD 25994). TERRA can be tracked NOW for your location showing map with azimuth and elevation plus other details from your city location.

Track the satellite on the map from your city or location and see movement details for azimuth, elevation, latitude, longitude, range, height, and movement on the map or in text.







IsCatalogInMostPopularTable: catalog: 25994, numindb: 62
Update: records affected: 1



GetName: 25994 TERRA

Hit Count: updated at: Tue, 18 Dec 2018 21:04:28 GMT